Wednesday, June 29, 2016
14:30 UTC
  |  Log In   |  Register Free
Airport Search:

Francis E Warren Afb Airport
(KFEW)

Francis E Warren Afb Airport Diagram
No Airport Diagram Available

FAA data valid effective May 26 2016 - Jul 21 2016 (unless otherwise noted).

 
 
 
 
 
 
 
 
 
 
 
 
 
 
Summary: Francis E Warren Afb (FEW)

Weather Summary


METAR for KFEW is not available. Closest METAR is for K82V
KFEW  (most recent observation was updatred at 29:13 UTC)
291358Z AUTO 25003KT 10SM CLR 16/12 A3029 RMK AO2 SLP184 T01570119 $

K82V  (33.1 nm SW)   (most recent observation was updated at 29:14 UTC)
291415Z AUTO 22008KT 10SM CLR 17/11 A3022 RMK AO2

TAF for KFEW is not available.
KCYS  (2.9 nm SW)   (most recent observation was updatred at 29:11 UTC)
291140Z 2912/3012 28005KT P6SM FEW150 FM291700 34008KT P6SM FEW250 FM292000 06009KT P6SM SCT150 FM300000 11007KT P6SM VCTS BKN100CB FM300600 17005KT P6SM BKN050


GlobalAir.com is loading additional information.
Current weather conditions are not available for FEW.

The nearest NOAA weather station is at CYS (2.5 nm NE from FEW)
 Current Weather at CYS
53.0 F° (11.7 C°)
Fair
Northwest winds at 5.8 mph
Pressure:
30.28 in
Humidity:
80%
Wind:
Northwest at 5.8 MPH (5 KT)
Dew Point:
46.9 F° (8.3 C°)
Visibility:
10.00 mi
FEW NOAA Radar

Runway Summary

ID Dimensions Surface Instrument Approaches
H1 65 ft x 65 ft Bituminous Concrete, Good Condition N/A
H2 50 ft x 50 ft Bituminous Concrete N/A

Communications Summary


CTAFN/A
UNICOMN/A
ATISN/A
CLEARANCE DELIVERYN/A

Terminal Procedures Summary


No terminal procedures available for FEW





Closest Alternate Airports with Instrument Procedures

KCYS - Cheyenne Regional/Jerry Olson Field - 3.3 nm NE from FEW

KLAR - Laramie Regional - 43.8 nm NW from FEW

KFNL - Fort Collins-Loveland Municipal - 47.7 nm SW from FEW

KGXY - Greeley-Weld County - 49.7 nm SE from FEW

KIBM - Kimball Municipal/Robert E Arraj Field - 62.1 nm NE from FEW

KLMO - Vance Brand - 68.8 nm SW from FEW

KTOR - Torrington Municipal - 74.2 nm NE from FEW

KEIK - Erie Municipal - 78.3 nm SW from FEW

KBFF - Western Neb. Regional/William B. Heilig Field - 83.4 nm NE from FEW

KBJC - Rocky Mountain Metropolitan - 85.7 nm SW from FEW

Find All Airport Services Find A Hotel Find A Rental Car Find A Golf Course Find A Restaurant $100 Hamburger



FBO's on the Field
FBO Company Facility Photos Services Transportation Aviation Fuel Prices: Prices include tax
Catering Weather Repair Courtesy Rental Type 100LL JetA JetA+ MOGAS 8087
 
Add another FBO Facility Photos Catering Weather Repair Courtesy Rental Type 100LL JetA JetA+ MOGAS 8087
Services Transportation Aviation Fuel Prices: Prices include tax
There are no FBO's currently reporting fuel at FEW. List your FBO now


model-print
model-print
model-print
model-print